CAPE
0 0 0 0 0 0 0 0 0 0 0 0 0 0 0 0 0 0 0 0 0 0 0 0 0 22 60 55 24 0 0 0 0 0 0 1 0 0 0 0 0 1 26 3
0 0 0 0 0 0 0 0 0 0 0 0 0 0 0 0 0 0 0 0 0 0 0 0 0 45 100 91 22 5 0 0 0 0 0 0 0 0 0 0 0 0 0 3
0 0 0 0 0 0 0 0 0 0 0 0 0 0 0 0 0 0 0 0 0 0 0 0 0 51 98 90 30 10 0 0 0 0 0 0 0 0 0 0 0 0 4 12
0 0 0 0 0 0 0 0 0 0 0 0 0 0 0 0 0 0 0 0 0 0 0 0 0 38 91 79 19 4 0 0 0 0 0 0 0 0 0 0 0 2 2 15
0 0 0 0 0 0 0 0 0 0 0 0 0 0 0 0 0 0 0 0 0 0 0 0 0 16 72 35 27 2 0 0 0 0 0 0 0 0 0 0 0 0 0 1
0 0 0 0 0 0 0 0 0 0 0 0 0 0 0 0 0 0 0 0 0 0 0 0 0 0 13 11 14 0 0 0 0 0 0 0 0 0 0 0 0 0 0 1
0 0 0 0 0 0 0 0 0 0 0 0 0 0 0 0 0 0 0 0 0 0 0 0 0 0 0 12 14 0 0 0 0 0 0 0 0 0 0 0 0 0 0 0
0 0 0 0 0 0 0 7 0 0 0 0 0 0 0 0 0 0 0 0 0 0 0 0 0 0 0 14 10 0 0 0 0 1 0 0 0 0 0 0 0 0 0 0
0 0 0 0 0 0 0 2 5 0 0 0 0 0 0 0 0 0 0 0 0 0 0 0 0 0 0 1 1 0 0 0 0 0 0 0 0 0 0 0 0 0 0 0
0 0 0 0 0 0 0 0 1 0 0 1 0 0 0 0 0 0 0 0 0 0 0 0 0 0 0 0 0 0 0 0 0 0 0 0 0 0 0 0 0 0 0 0
0 0 0 0 0 0 0 2 1 1 0 1 0 10 38 2 0 0 0 0 0 0 1 44 23 0 0 0 0 0 0 0 0 0 0 0 0 0 0 0 0 0 0 0
0 0 0 0 0 1 2 0 6 0 0 1 1 0 0 1 0 0 0 0 0 0 13 148 74 11 0 0 0 0 0 0 0 0 1 0 0 0 0 0 0 0 0 0
0 0 0 1 0 0 0 0 0 2 1 0 0 0 0 0 0 0 0 0 0 0 10 89 69 28 0 0 0 0 0 0 0 1 1 0 0 0 0 0 0 0 0 0
0 0 0 0 0 0 0 0 2 0 0 0 0 0 7 0 0 0 0 0 0 0 0 2 10 13 11 0 0 0 0 0 0 0 1 0 0 0 0 0 0 0 0 0
0 0 0 0 0 0 0 0 4 1 0 0 0 2 0 0 0 0 0 0 1 4 0 0 0 0 0 0 0 0 1 0 0 0 0 0 0 0 0 0 0 0 0 0
0 0 0 0 0 0 0 0 0 0 1 1 4 0 2 8 0 0 1 3 2 0 0 0 0 0 0 0 0 0 0 0 0 0 0 0 0 0 0 0 0 0 0 0
7 6 0 0 0 0 0 0 0 0 0 0 0 2 1 0 11 0 15 1 3 0 0 0 0 0 0 2 3 0 1 0 0 1 1 1 0 0 0 0 0 1 1 0
0 0 0 0 0 0 0 0 3 0 0 0 0 5 0 0 1 1 4 2 3 2 0 0 0 0 0 1 1 1 0 1 0 0 0 2 1 0 0 1 0 0 0 1
0 0 0 0 0 0 0 0 0 0 0 4 16 1 0 0 0 2 3 3 4 3 3 1 0 0 0 0 0 0 0 0 0 1 1 2 4 5 1 1 1 1 1 1
0 0 0 0 0 0 0 0 0 1 0 5 9 2 4 0 0 3 3 3 0 1 1 0 0 0 0 0 0 0 0 0 1 2 2 2 2 2 6 7 5 3 1 1
0 0 0 0 0 0 0 0 0 0 0 0 3 1 2 0 0 1 0 0 0 0 0 0 0 0 1 0 0 0 2 3 1 1 0 0 2 2 4 3 7 7 5 1
0 0 0 0 0 0 0 0 0 0 0 0 0 0 0 0 0 0 0 0 0 0 0 0 0 0 1 1 4 4 2 3 2 0 0 0 3 6 5 2 3 4 6 4
0 1 0 0 0 3 1 1 1 0 0 0 0 0 0 0 0 0 0 0 1 0 0 0 0 0 0 3 3 3 2 2 2 1 0 5 5 7 6 3 1 0 3 5
0 1 0 1 5 2 3 3 2 2 0 0 0 0 0 0 0 0 0 0 0 0 0 0 0 0 0 1 2 4 1 1 2 3 4 3 6 6 7 5 6 5 3 3
0 0 0 0 0 1 1 2 2 1 1 0 0 0 0 0 0 0 0 0 0 0 0 0 1 1 2 2 2 3 1 1 2 4 4 4 5 4 4 3 3 3 2 3
0 1 0 0 0 0 1 0 1 3 2 0 0 0 0 0 0 0 3 2 2 2 2 2 2 2 2 1 2 1 2 0 2 3 3 3 2 2 1 1 2 2 2 1
CIN
-0 -0 -0 -0 -0 -0 -0 -0 -0 -0 -0 -0 -0 -0 -0 -0 -0 -0 -0 -0 -0 -0 -0 -0 -0 -461 -510 -504 -460 -1 -0 -0 -0 -0 -0 -0 -0 -0 -0 -0 -0 -11 -3 -8
-0 -0 -0 -0 -0 -0 -0 -0 -0 -0 -0 -0 -0 -0 -0 -0 -0 -0 -0 -0 -0 -0 -0 -0 -0 -505 -469 -499 -500 -499 -0 -0 -0 -0 -0 -0 -0 -0 -0 -0 -0 -0 -0 -28
-0 -0 -0 -0 -0 -0 -0 -0 -0 -0 -0 -0 -0 -0 -0 -0 -0 -0 -0 -0 -0 -0 -0 -0 -0 -459 -520 -523 -532 -523 -0 -0 -0 -0 -0 -0 -0 -0 -0 -0 -0 -0 -5 -0
-0 -0 -0 -0 -0 -0 -0 -0 -0 -0 -0 -0 -0 -0 -0 -0 -0 -0 -0 -0 -0 -0 -0 -0 -0 -483 -474 -544 -594 -591 -0 -0 -0 -0 -0 -0 -0 -0 -0 -0 -0 -4 -0 -1
-0 -0 -0 -0 -0 -0 -0 -0 -0 -0 -0 -0 -0 -0 -0 -0 -0 -0 -0 -0 -0 -0 -0 -0 -0 -415 -497 -614 -604 -575 -0 -0 -0 -0 -0 -0 -0 -0 -0 -0 -0 -0 -1 -3
-0 -0 -0 -0 -0 -0 -0 -0 -0 -0 -2 -0 -0 -0 -0 -0 -0 -0 -0 -0 -0 -0 -0 -0 -0 -0 -586 -678 -655 -0 -0 -0 -0 -0 -0 -0 -0 -0 -0 -0 -0 -0 -0 -0
-0 -0 -0 -0 -0 -0 -0 -1 -0 -0 -0 -0 -0 -0 -0 -0 -0 -0 -0 -0 -0 -0 -0 -0 -0 -264 -0 -643 -673 -0 -0 -0 -0 -0 -0 -0 -0 -0 -0 -0 -0 -0 -0 -0
-0 -0 -0 -0 -0 -0 -0 -0 -13 -0 -0 -0 -0 -0 -0 -0 -0 -0 -0 -0 -0 -0 -0 -0 -0 -0 -0 -656 -700 -0 -0 -0 -0 -0 -0 -0 -0 -0 -0 -0 -0 -0 -0 -0
-0 -0 -0 -0 -0 -0 -0 -3 -0 -0 -0 -0 -0 -0 -0 -0 -0 -0 -0 -0 -0 -0 -0 -0 -0 -0 -0 -99 -97 -0 -0 -0 -0 -0 -0 -0 -0 -0 -0 -0 -0 -0 -0 -0
-0 -0 -0 -0 -0 -0 -0 -0 -5 -0 -0 -5 -0 -0 -0 -0 -0 -0 -0 -0 -0 -0 -0 -0 -0 -0 -0 -0 -113 -0 -0 -0 -0 -0 -0 -0 -0 -0 -0 -0 -0 -0 -0 -0
-0 -0 -0 -0 -0 -0 -0 -8 -0 -0 -0 -0 -10 -8 -5 -41 -0 -0 -0 -0 -0 -0 -42 -539 -613 -16 -0 -0 -0 -0 -0 -0 -0 -0 -0 -0 -0 -0 -0 -0 -0 -0 -0 -0
-0 -0 -0 -0 -0 -10 -18 -0 -0 -0 -3 -1 -5 -0 -0 -18 -0 -0 -0 -0 -0 -0 -56 -435 -460 -577 -0 -0 -0 -0 -0 -0 -0 -0 -0 -0 -0 -0 -0 -0 -0 -0 -0 -0
-0 -0 -0 -7 -1 -0 -0 -0 -0 -0 -0 -0 -0 -0 -0 -0 -0 -0 -0 -0 -0 -0 -369 -350 -358 -450 -344 -0 -0 -0 -0 -0 -0 -0 -0 -0 -0 -0 -0 -0 -0 -0 -0 -0
-0 -0 -0 -0 -0 -0 -3 -0 -0 -0 -0 -0 -0 -0 -20 -0 -0 -0 -0 -0 -0 -0 -0 -264 -387 -369 -336 -91 -0 -0 -0 -0 -0 -0 -0 -0 -0 -0 -0 -0 -0 -0 -0 -0
-0 -0 -0 -0 -0 -0 -0 -0 -0 -0 -0 -0 -0 -2 -0 -0 -0 -0 -0 -0 -8 -64 -0 -0 -0 -0 -0 -0 -0 -0 -187 -0 -0 -0 -0 -0 -0 -0 -0 -0 -0 -0 -0 -0
-0 -0 -0 -0 -0 -0 -0 -0 -0 -0 -22 -0 -0 -0 -14 -6 -2 -0 -13 -3 -5 -0 -0 -0 -0 -0 -0 -0 -0 -0 -0 -0 -0 -0 -0 -0 -0 -0 -0 -0 -0 -0 -0 -0
-3 -3 -0 -0 -0 -0 -0 -0 -0 -3 -0 -0 -0 -0 -2 -0 -0 -0 -1 -5 -13 -0 -0 -0 -0 -0 -0 -0 -0 -0 -0 -0 -0 -226 -0 -0 -0 -0 -0 -0 -0 -0 -0 -0
-0 -0 -0 -0 -0 -0 -0 -0 -13 -0 -0 -0 -0 -4 -0 -0 -0 -0 -1 -8 -0 -0 -0 -0 -0 -0 -0 -0 -0 -0 -0 -0 -0 -0 -0 -0 -0 -0 -0 -0 -0 -0 -0 -0
-0 -0 -0 -0 -0 -0 -0 -0 -0 -0 -0 -6 -3 -0 -0 -0 -7 -0 -0 -0 -0 -0 -0 -0 -0 -0 -0 -0 -0 -0 -0 -0 -0 -0 -0 -0 -0 -0 -0 -0 -0 -0 -0 -0
-0 -0 -0 -0 -0 -0 -0 -0 -0 -8 -0 -20 -16 -0 -0 -0 -0 -0 -0 -0 -0 -0 -0 -0 -0 -0 -0 -0 -0 -0 -0 -0 -0 -0 -0 -0 -0 -0 -0 -0 -0 -0 -0 -0
-0 -0 -0 -0 -1 -0 -0 -0 -0 -1 -0 -0 -37 -12 -0 -0 -0 -0 -0 -0 -0 -0 -0 -0 -0 -0 -0 -0 -0 -0 -0 -0 -0 -0 -0 -0 -0 -0 -0 -0 -0 -0 -0 -0
-0 -0 -0 -0 -1 -0 -0 -0 -0 -0 -0 -0 -0 -0 -0 -0 -0 -0 -0 -0 -0 -0 -0 -0 -0 -0 -0 -0 -0 -0 -0 -0 -0 -0 -0 -0 -0 -0 -0 -0 -0 -0 -0 -0
-1 -15 -2 -0 -0 -2 -0 -0 -0 -0 -0 -0 -0 -0 -0 -0 -0 -0 -0 -0 -0 -0 -0 -0 -0 -0 -0 -0 -0 -0 -0 -0 -0 -0 -0 -0 -0 -0 -0 -0 -0 -0 -0 -0
-0 -0 -0 -1 -1 -0 -0 -0 -0 -0 -0 -0 -0 -0 -0 -0 -0 -0 -0 -0 -0 -0 -0 -0 -0 -0 -0 -0 -0 -0 -0 -0 -0 -0 -0 -0 -0 -0 -0 -0 -0 -0 -0 -0
-0 -0 -0 -0 -0 -0 -0 -0 -0 -0 -0 -0 -0 -0 -0 -0 -0 -0 -0 -0 -0 -0 -0 -0 -0 -0 -0 -0 -0 -0 -0 -0 -0 -0 -0 -0 -0 -0 -0 -0 -0 -0 -0 -0
-0 -0 -0 -0 -0 -0 -0 -0 -0 -0 -0 -0 -0 -0 -0 -0 -0 -0 -0 -0 -0 -0 -0 -0 -0 -0 -0 -0 -0 -0 -0 -0 -0 -0 -0 -0 -0 -0 -0 -0 -0 -0 -0 -0
Wind_Speed
19 26 28 27 26 31 35 36 36 33 32 36 36 44 46 42 40 39 39 42 44 44 34 18 15 12 9 8 7 5 4 5 2 3 5 7 5 5 6 10 11 16 13 14
22 30 25 24 26 30 34 38 41 38 34 36 40 48 50 45 40 37 44 44 44 45 27 18 14 13 12 11 10 6 6 4 2 2 4 8 6 5 6 8 14 19 19 14
24 21 20 21 25 30 32 36 38 40 37 40 42 54 45 41 38 42 45 44 44 42 27 16 13 15 12 11 12 9 8 4 2 2 5 9 10 10 5 10 25 30 21 14
23 21 22 22 25 25 35 30 34 35 37 43 32 57 49 40 36 47 50 46 43 37 26 17 13 14 14 12 9 8 7 4 2 3 4 4 5 6 5 4 8 16 6 10
20 17 19 23 25 23 30 27 33 35 35 39 36 38 48 25 40 47 46 44 41 39 27 19 13 19 16 12 12 9 6 4 2 4 5 5 4 6 7 6 6 5 1 8
19 17 18 21 21 23 25 29 31 32 32 43 35 29 39 39 43 44 44 45 45 41 35 22 13 17 16 14 11 9 8 5 3 4 6 6 6 6 6 6 5 5 4 7
20 21 18 17 22 24 24 25 29 31 29 36 28 22 22 41 39 41 41 43 44 38 35 21 13 13 16 17 15 12 10 6 4 4 6 7 9 6 7 7 5 5 8 3
20 23 14 14 17 21 21 21 23 30 31 30 17 22 33 35 37 34 38 37 42 43 41 24 12 13 16 19 17 14 11 7 5 4 5 6 7 8 7 8 8 11 13 12
16 20 16 13 15 15 21 22 21 27 26 24 21 31 31 25 23 25 30 32 38 42 42 36 13 13 14 18 18 16 12 7 7 5 4 5 6 8 9 9 9 12 14 15
16 18 15 15 13 16 20 19 21 18 25 23 25 29 26 21 22 22 25 27 29 33 34 17 14 14 14 13 12 10 9 8 6 5 4 5 6 6 9 10 11 11 11 12
15 17 16 12 16 17 20 23 21 20 20 26 29 24 17 19 20 22 23 26 29 27 24 21 17 14 12 11 11 9 7 7 6 5 3 5 6 5 5 8 10 11 11 11
16 18 20 22 21 13 19 20 18 22 27 29 30 31 21 22 20 22 22 21 21 21 17 14 17 14 11 11 10 8 9 7 6 6 4 4 5 4 3 4 8 9 10 11
15 17 19 16 13 17 19 19 19 29 30 35 32 29 23 22 27 24 23 21 18 12 6 6 10 11 12 12 9 7 11 11 10 8 8 9 7 7 6 5 4 4 7 8
16 17 19 21 22 22 23 22 23 24 30 32 38 34 28 24 26 26 24 21 17 11 6 4 6 9 10 11 9 10 11 11 11 9 10 9 10 10 10 10 9 8 7 7
18 21 22 24 26 25 26 28 28 29 30 33 34 32 27 26 23 23 22 22 16 9 8 7 5 4 6 9 12 15 16 11 11 12 14 14 14 12 12 12 12 13 13 13
21 24 24 26 25 24 29 34 33 31 30 31 35 40 32 23 22 18 18 16 12 5 8 8 7 8 9 11 13 14 14 18 14 17 18 17 16 17 16 15 15 15 14 15
23 23 26 28 27 31 29 22 28 26 24 26 27 25 26 23 21 18 18 14 6 6 8 10 11 11 12 14 15 16 17 17 15 17 20 20 18 19 20 18 19 19 18 17
24 24 24 30 28 30 22 28 22 20 23 29 32 19 9 9 8 6 8 8 8 9 9 12 13 12 15 16 17 18 19 18 18 18 19 21 23 26 27 23 21 21 22 21
24 22 25 28 28 33 30 22 23 26 26 22 12 7 1 1 4 7 8 7 8 10 11 12 13 14 17 18 18 18 19 20 20 21 22 24 25 26 28 31 32 30 27 25
17 21 23 26 30 30 19 22 25 28 28 17 11 16 10 14 10 10 9 9 11 14 14 14 15 16 18 19 20 20 21 22 23 23 24 24 25 25 27 29 31 32 33 35
21 22 26 29 30 31 28 31 29 29 24 16 14 14 23 16 12 10 12 14 15 16 18 18 19 20 20 22 21 22 22 23 24 24 24 24 25 25 27 28 29 31 31 31
23 23 24 23 28 37 28 26 27 20 17 15 14 13 11 10 10 12 15 17 18 19 19 21 21 22 23 24 23 24 25 25 24 23 24 25 26 26 28 28 29 29 30 29
23 21 26 21 22 18 18 15 15 13 12 15 14 14 12 11 13 15 17 18 19 21 22 23 24 24 25 25 25 25 26 26 24 24 24 24 25 26 27 28 28 28 28 28
20 22 20 15 13 14 14 14 13 13 14 14 15 15 15 15 15 18 20 21 22 24 25 25 25 26 26 26 26 26 26 25 24 23 23 23 24 25 26 26 27 27 28 27
21 24 23 16 12 13 13 15 13 13 15 15 17 17 17 18 19 19 20 22 23 24 25 25 26 26 26 26 27 27 27 25 23 23 23 23 23 24 25 26 27 27 28 27
20 20 21 20 22 11 13 15 13 14 16 17 18 19 20 19 20 21 22 23 23 24 24 24 24 25 26 26 26 27 26 25 23 23 23 23 23 23 23 23 24 28 28 28
Wind_Direction
277 270 270 272 276 279 280 280 281 283 286 285 283 283 284 286 286 286 283 281 277 272 277 261 236 229 233 195 185 174 151 136 92 53 14 0 5 348 318 296 271 272 234 219
276 272 280 282 281 280 280 280 280 284 285 287 286 284 284 285 285 285 277 274 272 268 276 264 232 221 211 189 186 183 161 146 116 75 22 5 16 30 349 313 285 268 263 225
271 284 293 280 282 281 281 280 282 284 288 286 290 284 286 284 286 279 270 266 269 266 271 259 221 207 217 200 186 181 167 161 135 63 28 8 7 2 34 318 268 254 261 239
279 283 284 289 286 287 283 288 287 289 289 286 294 286 286 288 282 269 260 259 262 269 271 256 229 220 216 208 198 191 174 174 147 117 89 58 42 27 43 43 324 284 208 224
280 285 285 284 287 295 290 299 291 290 288 289 289 292 294 293 275 267 258 255 259 263 270 256 224 201 219 218 195 195 190 193 166 140 118 95 67 35 34 36 45 20 204 243
277 290 293 293 298 300 301 298 294 295 293 286 291 286 294 276 269 264 255 249 251 257 261 266 226 252 234 230 208 199 188 190 180 149 131 122 110 61 61 56 56 30 51 292
278 281 292 299 296 302 302 298 294 294 289 292 308 290 255 261 269 259 249 246 249 260 262 270 249 223 223 201 193 194 185 190 185 163 141 132 127 98 105 98 84 92 102 54
269 278 286 295 297 305 302 297 296 297 298 304 302 300 258 277 278 265 252 258 253 254 255 264 220 216 200 186 186 187 184 191 190 175 151 136 128 122 110 110 108 126 131 126
276 282 291 302 310 314 313 299 303 297 308 306 300 275 281 302 296 287 270 266 263 252 249 216 213 212 194 182 182 179 181 196 187 181 161 148 141 134 128 122 120 136 138 139
284 286 292 301 316 313 316 320 306 298 299 300 293 268 277 290 287 294 291 271 273 264 257 260 223 207 197 199 198 197 198 197 197 198 179 166 154 146 138 134 136 140 141 143
278 288 296 312 304 310 315 314 304 303 297 282 269 270 302 289 292 293 299 284 274 271 261 252 236 231 221 212 204 210 213 199 207 210 212 183 170 160 150 148 148 153 154 159
281 289 289 294 305 320 320 319 313 291 280 277 266 263 292 275 293 296 297 305 289 280 258 248 241 233 229 226 227 230 242 229 235 235 247 236 209 202 199 175 160 158 164 167
288 289 293 302 325 325 324 324 309 293 275 266 261 263 277 279 267 287 291 300 306 312 274 246 239 239 241 246 254 254 260 264 270 269 274 276 263 256 254 257 237 200 182 182
294 289 295 294 300 308 310 313 310 306 271 267 255 260 267 276 274 268 278 288 304 346 330 297 263 259 260 264 273 276 273 272 274 273 278 274 270 265 269 272 272 265 258 235
289 287 291 291 292 295 299 296 296 290 280 265 261 263 267 265 274 281 282 276 293 345 9 355 315 298 307 303 297 295 283 281 282 280 280 280 281 282 277 276 275 277 273 270
287 284 290 291 292 300 291 280 279 285 279 276 264 255 260 277 269 270 258 287 284 324 5 356 340 354 340 329 320 314 306 298 291 285 286 285 284 283 283 283 280 277 273 270
286 289 288 283 290 291 286 302 292 296 287 284 273 276 261 263 263 255 254 269 294 308 314 330 329 335 332 332 326 327 322 326 321 303 296 294 291 287 286 286 286 285 281 278
285 288 287 280 290 277 294 300 312 305 293 276 258 281 284 274 284 311 304 299 292 290 317 312 321 331 337 334 329 327 326 324 327 322 315 310 301 294 291 289 287 286 286 281
278 286 285 279 282 278 289 295 287 290 281 296 291 303 329 86 39 359 340 344 333 319 305 322 330 333 338 335 332 335 329 324 327 322 316 313 310 307 300 292 293 288 285 285
289 281 281 282 280 274 298 310 303 279 269 298 311 261 259 258 270 290 311 328 344 334 329 324 323 330 332 326 327 331 330 331 333 328 325 322 318 314 310 307 303 300 295 289
292 289 280 281 281 282 289 294 297 264 274 296 285 271 250 280 286 294 302 312 315 328 327 332 330 328 322 320 322 326 330 332 332 331 330 329 326 321 318 315 313 310 307 304
290 291 292 295 289 275 298 292 277 281 296 298 297 292 298 314 311 310 311 307 308 314 320 323 323 324 329 328 328 327 329 329 332 333 333 332 329 324 322 321 319 319 316 313
296 302 301 298 300 313 321 310 303 301 298 303 305 307 305 310 311 311 312 315 316 317 318 320 320 322 326 327 326 325 323 326 332 332 332 333 335 334 333 333 331 329 326 323
314 313 308 305 320 315 313 306 314 308 301 311 314 315 310 308 309 314 314 316 316 318 318 318 317 318 318 323 324 324 326 326 329 330 333 334 336 340 342 343 343 339 334 332
280 282 275 299 317 322 320 306 306 316 309 312 306 317 311 312 315 319 317 317 320 321 322 323 321 320 321 324 326 328 327 328 329 332 333 334 336 339 343 347 344 345 347 341
284 285 270 288 284 318 340 310 314 314 307 319 314 304 314 319 316 315 318 321 320 323 324 325 326 324 325 327 330 332 334 333 332 329 330 333 334 336 340 341 347 357 358 357